Tillbaka till svenska Fidonet
English   Information   Debug  
FILM   0/18
FNEWS_PUBLISH   5034
FN_SYSOP   42247
FN_SYSOP_OLD1   71952
FTP_FIDO   0/2
FTSC_PUBLIC   0/13979
FUNNY   0/4886
GENEALOGY.EUR   0/71
GET_INFO   105
GOLDED   0/408
HAM   4992/16786
HOLYSMOKE   0/6791
HOT_SITES   0/1
HTMLEDIT   0/71
HUB203   466
HUB_100   264
HUB_400   39
HUMOR   0/29
IC   0/2851
INTERNET   0/424
INTERUSER   0/3
IP_CONNECT   719
JAMNNTPD   0/233
JAMTLAND   0/47
KATTY_KORNER   0/41
LAN   0/16
LINUX-USER   0/19
LINUXHELP   0/1155
LINUX   0/22427
LINUX_BBS   0/957
mail   18.68
mail_fore_ok   249
MENSA   0/341
MODERATOR   0/102
MONTE   0/992
MOSCOW_OKLAHOMA   0/1245
MUFFIN   0/783
MUSIC   0/321
N203_STAT   938
N203_SYSCHAT   313
NET203   321
NET204   69
NET_DEV   0/10
NORD.ADMIN   0/101
NORD.CHAT   0/2572
NORD.FIDONET   189
NORD.HARDWARE   0/28
NORD.KULTUR   0/114
NORD.PROG   0/32
NORD.SOFTWARE   0/88
NORD.TEKNIK   0/58
NORD   0/453
OCCULT_CHAT   0/93
OS2BBS   0/787
OS2DOSBBS   0/580
OS2HW   0/42
OS2INET   0/37
OS2LAN   0/134
OS2PROG   0/36
OS2REXX   0/113
OS2USER-L   207
OS2   0/4835
OSDEBATE   0/18996
PASCAL   0/490
PERL   0/457
PHP   0/45
POINTS   0/405
POLITICS   0/29554
POL_INC   0/14731
PSION   103
R20_ADMIN   1133
R20_AMATORRADIO   0/2
R20_BEST_OF_FIDONET   16
R20_CHAT   0/897
R20_DEPP   0/3
R20_DEV   400
R20_ECHO2   1933
R20_ECHOPRES   0/35
R20_ESTAT   0/719
R20_FIDONETPROG...
...RAM.MYPOINT
  0/2
R20_FIDONETPROGRAM   0/22
R20_FIDONET   0/248
R20_FILEFIND   0/24
R20_FILEFOUND   0/22
R20_HIFI   0/3
R20_INFO2   3827
R20_INTERNET   0/12940
R20_INTRESSE   0/60
R20_INTR_KOM   0/99
R20_KANDIDAT.CHAT   42
R20_KANDIDAT   28
R20_KOM_DEV   112
R20_KONTROLL   0/13360
R20_KORSET   0/18
R20_LOKALTRAFIK   0/24
R20_MODERATOR   0/1852
R20_NC   76
R20_NET200   245
R20_NETWORK.OTH...
...ERNETS
  0/13
R20_OPERATIVSYS...
...TEM.LINUX
  0/44
R20_PROGRAMVAROR   0/1
R20_REC2NEC   534
R20_SFOSM   0/341
R20_SF   0/108
R20_SPRAK.ENGLISH   0/1
R20_SQUISH   107
R20_TEST   2
R20_WORST_OF_FIDONET   20
RAR   0/9
RA_MULTI   106
RA_UTIL   0/162
REGCON.EUR   0/2072
REGCON   0/13
SCIENCE   0/1206
SF   0/239
SHAREWARE_SUPPORT   0/5146
SHAREWRE   0/14
SIMPSONS   0/169
STATS_OLD1   0/2539.065
STATS_OLD2   0/2530
STATS_OLD3   0/2395.095
STATS_OLD4   0/1692.25
SURVIVOR   0/495
SYSOPS_CORNER   0/3
SYSOP   0/84
TAGLINES   0/112
TEAMOS2   0/4530
TECH   0/2617
TEST.444   0/105
TRAPDOOR   0/19
TREK   0/755
TUB   0/290
UFO   0/40
UNIX   0/1316
USA_EURLINK   0/102
USR_MODEMS   0/1
VATICAN   0/2740
VIETNAM_VETS   0/14
VIRUS   0/378
VIRUS_INFO   0/201
VISUAL_BASIC   0/473
WHITEHOUSE   0/5187
WIN2000   0/101
WIN32   0/30
WIN95   0/4291
WIN95_OLD1   0/70272
WINDOWS   0/1517
WWB_SYSOP   0/419
WWB_TECH   0/810
ZCC-PUBLIC   0/1
ZEC   4

 
4DOS   0/134
ABORTION   0/7
ALASKA_CHAT   0/506
ALLFIX_FILE   0/1313
ALLFIX_FILE_OLD1   0/7997
ALT_DOS   0/152
AMATEUR_RADIO   0/1039
AMIGASALE   0/14
AMIGA   0/331
AMIGA_INT   0/1
AMIGA_PROG   0/20
AMIGA_SYSOP   0/26
ANIME   0/15
ARGUS   0/924
ASCII_ART   0/340
ASIAN_LINK   0/651
ASTRONOMY   0/417
AUDIO   0/92
AUTOMOBILE_RACING   0/105
BABYLON5   0/17862
BAG   135
BATPOWER   0/361
BBBS.ENGLISH   0/382
BBSLAW   0/109
BBS_ADS   0/5290
BBS_INTERNET   0/507
BIBLE   0/3563
BINKD   0/1119
BINKLEY   0/215
BLUEWAVE   0/2173
CABLE_MODEMS   0/25
CBM   0/46
CDRECORD   0/66
CDROM   0/20
CLASSIC_COMPUTER   0/378
COMICS   0/15
CONSPRCY   0/899
COOKING   42383
COOKING_OLD1   0/24719
COOKING_OLD2   0/40862
COOKING_OLD3   0/37489
COOKING_OLD4   13926/35496
COOKING_OLD5   9370
C_ECHO   0/189
C_PLUSPLUS   0/31
DIRTY_DOZEN   0/201
DOORGAMES   0/2388
DOS_INTERNET   0/196
duplikat   6102
ECHOLIST   0/18295
EC_SUPPORT   0/318
ELECTRONICS   0/359
ELEKTRONIK.GER   1534
ENET.LINGUISTIC   0/13
ENET.POLITICS   0/4
ENET.SOFT   0/11701
ENET.SYSOP   34391
ENET.TALKS   0/32
ENGLISH_TUTOR   0/2000
EVOLUTION   0/1335
FDECHO   0/217
FDN_ANNOUNCE   107/7068
FIDONEWS   25225
FIDONEWS_OLD1   0/49742
FIDONEWS_OLD2   0/35949
FIDONEWS_OLD3   0/30874
FIDONEWS_OLD4   0/37224
FIDO_SYSOP   12977
FIDO_UTIL   0/180
FILEFIND   0/209
FILEGATE   0/212
Möte HAM, 16786 texter
 lista första sista föregående nästa
Text 3485, 894 rader
Skriven 2010-02-05 00:00:26 av Amsat List (1:323/120.0)
Ärende: [keps]  orb10035.amsa
=============================
[keps]  orb10035.amsa

Return-Path: <keps-bounces@amsat.org>
X-Rcpt: craig.healy@chowda.com
X-UIDL: 1265345322.8968

SB KEPS @ AMSAT  $ORB10035.O
Orbital Elements  10035.OSCAR

HR AMSAT ORBITAL ELEMENTS FOR OSCAR SATELLITES
FROM WA5QGD FORT WORTH,TX February 4, 2010
Send Subscribe/unsubscribe to KEPS at http://www.amsat.org/mailman/listinfo/kep
BID: ORB10035.O
TO ALL RADIO AMATEURS BT

Satellite: AO-07
Catalog number: 07530
Epoch time:      10035.48484518
Element set:     696
Inclination:      101.4106 deg
RA of node:       056.4629 deg
Eccentricity:    0.0011970
Arg of perigee:   173.6850 deg
Mean anomaly:     186.4378 deg
Mean motion:   12.53577696 rev/day
Decay rate:       -2.7e-07 rev/day^2
Epoch rev:           61182
Checksum:              314

Satellite: FO-29
Catalog number: 24278
Epoch time:      10034.62183458
Element set:     237
Inclination:      098.5234 deg
RA of node:       242.1624 deg
Eccentricity:    0.0351441
Arg of perigee:   110.3355 deg
Mean anomaly:     253.5906 deg
Mean motion:   13.52947547 rev/day
Decay rate:        7.0e-08 rev/day^2
Epoch rev:           66504
Checksum:              296

Satellite: SO-33
Catalog number: 25509
Epoch time:      10034.69071766
Element set:    0644
Inclination:      031.4317 deg
RA of node:       183.4301 deg
Eccentricity:    0.0354462
Arg of perigee:   202.7024 deg
Mean anomaly:     155.7566 deg
Mean motion:   14.28285384 rev/day
Decay rate:        8.8e-07 rev/day^2
Epoch rev:           58895
Checksum:              313

Satellite: RS-22
Catalog number: 27939
Epoch time:      10034.92958200
Element set:       1
Inclination:      097.9112 deg
RA of node:       265.9134 deg
Eccentricity:    0.0014786
Arg of perigee:   119.4089 deg
Mean anomaly:     240.8779 deg
Mean motion:   14.63378223 rev/day
Decay rate:       1.07e-06 rev/day^2
Epoch rev:           33946
Checksum:              314

Satellite: VO-52
Catalog number: 28650
Epoch time:      10035.30073699
Element set:     426
Inclination:      097.7112 deg
RA of node:       093.8037 deg
Eccentricity:    0.0026925
Arg of perigee:   353.8835 deg
Mean anomaly:     006.2047 deg
Mean motion:   14.81674816 rev/day
Decay rate:      -1.72e-06 rev/day^2
Epoch rev:           25701
Checksum:              303

Satellite: SO-67
Catalog number: 35870
Epoch time:      10035.94938657
Element set:     416
Inclination:      097.3515 deg
RA of node:       088.2449 deg
Eccentricity:    0.0011708
Arg of perigee:   154.2742 deg
Mean anomaly:     205.7498 deg
Mean motion:   15.22860492 rev/day
Decay rate:       4.91e-06 rev/day^2
Epoch rev:            2133
Checksum:              321

Satellite: HO-68
Catalog number: 36122
Epoch time:      10035.23386919
Element set:     125
Inclination:      100.4889 deg
RA of node:       096.9180 deg
Eccentricity:    0.0007285
Arg of perigee:   280.4438 deg
Mean anomaly:     079.5841 deg
Mean motion:   13.16279712 rev/day
Decay rate:       -4.5e-07 rev/day^2
Epoch rev:             672
Checksum:              309

/EX
SB KEPS @ AMSAT  $ORB10035.D
Orbital Elements  10035.MICROS

HR AMSAT ORBITAL ELEMENTS FOR THE MICROSATS
FROM WA5QGD FORT WORTH,TX February 4, 2010
Send Subscribe/unsubscribe to KEPS at http://www.amsat.org/mailman/listinfo/kep
BID: ORB10035.D
TO ALL RADIO AMATEURS BT

Satellite: UO-11
Catalog number: 14781
Epoch time:      10034.61151884
Element set:    0167
Inclination:      098.0750 deg
RA of node:       085.8208 deg
Eccentricity:    0.0008373
Arg of perigee:   315.5224 deg
Mean anomaly:     044.5314 deg
Mean motion:   14.79764546 rev/day
Decay rate:       -3.6e-07 rev/day^2
Epoch rev:           39205
Checksum:              296

Satellite: AO-16
Catalog number: 20439
Epoch time:      10035.55729522
Element set:     814
Inclination:      098.3144 deg
RA of node:       358.8083 deg
Eccentricity:    0.0010531
Arg of perigee:   196.0332 deg
Mean anomaly:     164.0514 deg
Mean motion:   14.31846659 rev/day
Decay rate:       -1.5e-07 rev/day^2
Epoch rev:            4640
Checksum:              282

Satellite: LO-19
Catalog number: 20442
Epoch time:      10035.78602208
Element set:     725
Inclination:      098.2768 deg
RA of node:       005.3667 deg
Eccentricity:    0.0011659
Arg of perigee:   191.0796 deg
Mean anomaly:     169.0139 deg
Mean motion:   14.32080196 rev/day
Decay rate:        3.8e-07 rev/day^2
Epoch rev:            4660
Checksum:              301

Satellite: AO-27
Catalog number: 22825
Epoch time:      10034.79412730
Element set:    0450
Inclination:      098.4708 deg
RA of node:       346.3064 deg
Eccentricity:    0.0007691
Arg of perigee:   306.0975 deg
Mean anomaly:     053.9484 deg
Mean motion:   14.29285337 rev/day
Decay rate:        5.7e-07 rev/day^2
Epoch rev:           85299
Checksum:              326

Satellite: IO-26
Catalog number: 22826
Epoch time:      10034.81338049
Element set:    0185
Inclination:      098.4631 deg
RA of node:       346.9783 deg
Eccentricity:    0.0008176
Arg of perigee:   301.0325 deg
Mean anomaly:     059.0057 deg
Mean motion:   14.29539049 rev/day
Decay rate:       -2.4e-07 rev/day^2
Epoch rev:           85310
Checksum:              300

Satellite: GO-32
Catalog number: 25397
Epoch time:      10035.50456971
Element set:     104
Inclination:      098.3167 deg
RA of node:       050.2444 deg
Eccentricity:    0.0000481
Arg of perigee:   342.4974 deg
Mean anomaly:     017.6207 deg
Mean motion:   14.23170655 rev/day
Decay rate:       -1.1e-07 rev/day^2
Epoch rev:           60117
Checksum:              267

